Portada
METAR-TAF:

METAR-TAF

Aeroports :

NWS Office

Pohnpei, Micronèsia

latitud: 06-58N, longitud: 158-13E, altitud: 39 m

Observació

L'informe es va fer fa 36 minuts, a les 13:55 UTC
Vent 4 kt del Nord-Est
Temperatura 28°C
Humitat 84%
Pressió 1011 hPa
Visibilitat: 24.1 km
Núvols disperses a una alçada de 1800 ft
Cel ennuvolat a una alçada de 13000 ft
Cel cobert a una alçada de 30000 ft

METAR: PTTP 081355Z 04004KT 15SM SCT018 BKN130 OVC300 28/25 A2986 RMK SLP110 T02830250

Hora: 01:31 (14:31 UTC)


TAF: manca

Observacions i pronòstics meteorològics de més de 4000 aeroports (METAR i TAF).

Les estacions disponibles són els punts grocs i vermells al mapa.

Posi el ratolí al punt desitjat per veure el nom de l'estació.

Feu clic per veure les observacions i els pronòstics meteorològics.

Per canviar el mapa: feu clic els botons verds amb una creu de color negre per apropar; al botó verd amb un guió per allunyar la imatge; o en les fletxes verdes per a mapes adjacents.


METAR-TAF: